NOAA 16 DEB

Satellite information

Favourite Embed

Satellite Type and Status

DEBRISIN ORBIT

Key statistics

Satellite NOAA 16 DEB at a glance.

Uptime

9115

Days in orbit

Revolutions

≈ 14.7

Per day

Orbit

SSO

Sun Synchronous Orbit

Inclination

98.8

Latest

Satellite identification and parameters

Extended collection of information and parameters for NOAA 16 DEB.

Object identification

Identified? True

Debris? True

Object name: NOAA 16 DEB

International designator: 2000-055CH

Object number (NORAD): 41150

Object ID (CCSDS): 41150

Country: UNITED STATES OF AMERICA (US)

Current information (Y/N): Y

RCS size: SMALL

Orbital parameters

Period: 98.009 minutes

Inclination: 98.8087 deg

SMA: 7041.603 km

Apoapsis: 685.746 km

Periapsis: 641.191 km

RAAN: 47.3327 deg

Eccentricy: 0.00316369

Argument of periapsis: 131.3646 deg

Mean anomaly: 229.0286 deg

Mean motion: 14.69249135 rev/day

Mean motion (dot): 0.00030956 rev/day2

B* drag term: 0.0051982128 1/REarth

Two-line elements (TLE)

Creation date: Sept. 4, 2025, 10:13 a.m.

Reference frame: TEME

Reference center: EARTH

Epoch: Sept. 3, 2025, 10:42 p.m. UTC

TLE line 0: 0 NOAA 16 DEB

TLE line 1: 1 41150U 00055CH 25246.94630346 .00030956 00000-0 51982-2 0 9995

TLE line 2: 2 41150 98.8087 47.3327 0031637 131.3646 229.0286 14.69249135510079

Live tracking on map

Real-time ground track for satellite NOAA 16 DEB.

In-orbit conjunctions

A list of the most updated potential collisions computed for object NOAA 16 DEB.

Target Orbit TCA Probability of collision Miss distance Type
CZ-6A DEB LEO 2024-12-22 14:46:51 0.001003463 120.0 (m) DEBRIS
FENGYUN 1C DEB SSO 2024-11-10 21:03:42 0.0001669584 649.0 (m) DEBRIS
IRIDIUM 33 DEB LEO 2024-10-05 01:05:58 0.0001258996 312.0 (m) DEBRIS
COSMOS 1275 DEB LEO 2024-09-26 11:12:56 0.001206895 265.0 (m) DEBRIS

Associated space launch

The NOAA K, L and M POES satellites begin the fifth generation of improved environmental monitoring in support of NOAA missions. The instrument payload has significant improvements and additions/deletions. The instrument changes have effected the spacecraft subsystems and data formats.

NOAA 16 DEB was lifted into orbit during the mission ‘Titan II SLV | NOAA 16’, on board a Titan II SLV space rocket.

The launch took place on Sept. 21, 2000, 10:22 a.m. from Space Launch Complex 4W.

For more information about the launch, click the button.

Launch to space Titan II SLV | NOAA 16
Titan II SLV | NOAA 16

Agency: N/A

Status: Launch Successful

Launch date: Sept. 21, 2000, 10:22 a.m. UTC

Rocket: Titan II SLV

Launch pad: Space Launch Complex 4W

Location: Vandenberg SFB, CA, USA

...

Latest news about this satellite

There are no fresh news available about this satellite. Check back as we update our databases every day.


Newsletter sign-up

Weekly statistics, charts and insights to help you stay on top of the space industry.